GFSCGP_850_rhum_057.txt.gz
RH
29 37 40 34 29 33 35 32 34 29 23 34 38 39 33 41 49 64 85 88 86 74 55 53 61 68 78 83 87 82 77 73 72 83 86 85 84 84 71 62 64 64 61 52
33 40 33 29 34 32 35 39 40 31 26 38 41 41 33 46 50 53 67 79 76 71 69 54 59 72 70 76 76 64 58 57 64 75 78 79 77 74 68 73 72 65 52 42
37 30 30 31 35 32 33 40 41 38 30 32 30 32 30 36 44 46 54 55 63 49 55 57 66 61 63 68 59 44 32 38 61 80 87 83 73 71 80 82 76 63 47 42
35 32 31 33 33 32 39 35 37 38 29 32 26 38 36 36 45 41 42 54 55 44 45 52 60 55 55 57 57 59 49 55 70 83 89 79 63 65 71 76 68 57 44 50
32 37 36 33 30 29 34 32 33 35 36 34 34 36 31 31 41 44 39 38 42 40 44 48 46 42 52 57 58 64 65 69 73 79 84 75 69 74 74 66 65 51 60 70
26 30 30 29 29 31 30 36 42 47 48 50 37 37 39 37 30 33 35 37 34 36 42 42 43 49 54 55 62 67 68 76 83 84 87 89 81 68 70 69 59 64 74 77
32 30 27 31 29 30 34 41 53 55 67 56 41 44 40 28 30 28 32 36 34 30 36 43 54 58 56 56 59 68 73 79 81 92 96 91 81 67 58 54 58 68 76 80
40 39 29 27 28 33 40 38 57 42 68 60 43 50 39 32 36 31 25 26 31 32 34 40 43 46 53 54 58 70 69 83 79 81 96 92 86 67 60 63 67 72 80 82
45 38 41 42 32 29 36 47 37 60 68 82 53 37 35 34 36 41 34 38 35 35 35 36 38 41 48 52 58 57 58 62 73 83 89 97 77 70 69 70 75 84 89 87
33 35 41 41 36 35 34 37 48 61 46 48 41 41 45 38 34 39 54 45 42 40 43 44 45 48 53 52 61 59 63 70 73 86 84 75 67 74 72 76 74 84 85 92
39 36 36 41 42 37 38 39 38 48 55 57 66 50 32 39 35 38 38 43 46 46 44 44 43 47 51 57 66 62 64 71 78 80 73 66 68 70 73 76 77 75 83 87
38 46 49 37 34 36 33 36 41 64 43 62 75 49 26 34 39 36 35 33 34 41 42 44 46 49 55 60 60 62 64 75 76 81 70 68 70 73 72 75 76 86 89 90
43 49 56 42 40 42 45 42 42 52 60 61 70 52 28 30 32 30 32 32 38 47 50 51 54 52 49 52 65 69 76 75 70 77 70 71 78 74 77 76 88 90 89 66
30 49 46 51 40 36 37 33 35 44 71 52 60 40 30 29 30 27 27 25 27 41 48 50 56 55 59 66 60 66 73 68 65 68 72 75 78 79 83 84 88 80 72 74
40 45 38 38 33 31 29 31 40 42 43 48 41 46 36 33 28 27 24 24 26 27 46 53 53 56 61 69 79 74 71 69 71 77 82 88 81 86 88 80 68 76 88 68
44 44 34 43 43 38 37 35 33 35 32 43 39 38 33 29 32 32 29 26 34 37 43 49 53 55 56 66 75 75 77 78 82 89 91 87 88 83 71 66 81 70 66 97
47 60 62 48 49 45 60 47 38 34 33 32 39 35 36 42 47 45 39 37 35 36 36 37 50 59 60 58 63 72 76 80 90 90 87 82 76 64 71 73 78 98 97 93
59 63 72 72 64 65 41 37 35 37 36 38 38 43 45 51 53 49 47 45 45 46 46 48 52 58 65 67 72 77 85 89 84 78 71 62 63 64 69 95 100 94 74 62
59 75 81 72 76 53 42 33 36 33 34 37 51 55 56 52 43 53 45 37 36 39 44 53 61 70 74 81 85 88 87 78 65 60 58 59 65 81 94 97 80 72 54 46
65 76 75 85 74 75 56 39 24 32 51 39 44 57 57 48 56 72 56 49 44 44 47 55 67 75 79 82 82 77 67 60 54 56 67 76 83 98 70 54 49 35 32 34
89 94 83 96 81 71 49 35 25 39 46 40 40 44 47 52 50 52 57 53 52 51 54 58 65 69 70 68 65 61 54 53 63 70 82 98 81 68 58 48 34 30 28 31
73 90 90 91 79 68 40 39 37 42 44 40 47 48 48 50 56 56 58 57 58 58 60 61 60 59 56 55 55 58 66 77 90 98 87 72 56 41 33 32 31 32 34 36
57 65 77 70 72 54 48 37 35 34 40 48 48 53 44 52 57 59 61 59 58 57 57 56 55 57 64 66 71 75 74 80 62 46 39 37 37 41 48 51 49 52 55 59
58 61 75 67 66 76 68 49 44 44 44 51 50 52 54 55 59 62 62 60 59 59 60 61 64 69 76 62 59 63 50 48 45 43 46 50 52 49 50 54 61 68 73 80
65 61 82 89 80 75 72 62 55 53 54 58 62 60 57 55 64 62 63 64 65 68 78 83 91 67 62 55 50 49 49 49 48 49 49 52 56 58 57 56 62 68 70 88
58 71 80 83 72 65 71 68 62 58 61 60 55 63 65 62 64 64 66 70 78 73 64 59 56 54 56 54 54 55 54 52 50 48 46 42 42 42 44 41 28 27 26 28

GFSCGP_850_rhum_060.txt.gz
RH
32 38 42 38 32 31 34 34 36 30 28 30 34 43 42 57 80 97 88 92 91 73 59 54 54 58 57 68 81 84 84 80 76 74 80 85 80 80 86 94 81 64 63 70
37 42 34 30 35 33 34 37 38 35 29 33 39 41 37 51 62 78 82 81 70 62 65 66 62 62 50 57 71 74 82 80 73 69 69 75 77 85 93 86 66 65 67 72
38 31 33 34 36 35 34 36 38 39 35 35 34 32 36 36 49 57 68 54 60 60 52 60 56 56 54 56 57 62 67 70 75 66 71 77 86 93 87 75 67 74 71 62
34 31 33 36 37 37 40 34 35 40 36 38 26 35 36 37 48 50 56 68 61 59 58 46 42 47 54 55 62 68 76 79 76 70 68 74 79 82 78 71 74 79 65 58
30 35 37 37 36 33 38 36 39 37 40 37 38 40 32 38 49 49 48 54 56 50 54 41 37 40 47 53 58 64 70 72 62 64 68 75 87 90 74 78 85 76 62 62
28 32 33 32 29 31 30 38 41 48 49 52 39 41 41 41 39 40 44 43 44 47 50 50 39 42 47 59 58 60 64 65 59 60 66 80 93 88 75 84 86 72 65 69
34 32 29 30 31 30 33 41 54 54 66 54 42 47 44 30 29 33 41 39 38 39 46 51 42 40 45 50 50 56 62 65 69 69 81 83 99 86 90 82 74 70 60 63
43 38 32 29 30 34 41 38 57 40 63 56 45 48 35 30 33 36 32 26 34 37 39 44 38 37 42 44 46 50 58 61 69 81 90 84 100 100 92 67 65 61 60 71
44 35 37 40 34 30 41 44 38 62 70 81 52 40 27 34 34 41 39 40 30 35 35 32 34 35 39 41 42 46 52 59 64 81 73 86 100 92 87 64 61 67 68 71
34 32 39 40 37 36 32 40 47 59 50 53 45 41 40 31 34 40 47 38 46 39 37 34 32 32 36 38 43 52 54 56 70 76 82 94 88 83 83 70 67 71 77 86
38 32 34 41 43 41 43 44 45 50 56 55 66 49 37 28 34 32 36 39 34 41 40 37 35 34 35 40 47 50 56 63 71 78 76 75 82 85 77 72 85 81 88 91
38 43 45 40 37 34 37 44 45 65 47 65 76 56 28 29 33 35 31 33 35 35 35 38 40 40 40 42 48 53 59 66 64 68 68 72 77 77 70 74 88 88 93 95
43 44 46 39 38 44 45 44 47 55 62 62 72 54 29 32 32 28 32 26 30 33 38 41 45 42 43 48 52 60 56 54 65 73 73 75 84 84 82 84 83 93 84 94
31 52 42 42 36 42 48 44 48 48 72 55 62 41 33 31 32 30 24 26 28 32 41 42 43 50 52 58 62 54 54 57 62 69 88 99 87 82 85 85 87 91 93 78
40 43 46 39 34 34 34 33 46 45 45 49 43 49 37 34 36 29 25 22 26 26 26 41 51 57 63 71 61 55 65 70 75 93 100 91 79 84 86 91 99 92 90 90
46 44 38 42 43 40 38 38 44 40 38 44 41 43 38 32 34 36 34 29 40 43 44 47 54 59 60 65 74 82 88 89 86 91 92 84 84 99 97 99 92 92 80 90
50 60 59 51 49 44 60 50 43 40 40 40 48 41 40 44 47 51 51 49 55 50 43 44 52 59 63 65 71 80 84 85 84 87 90 96 99 92 89 85 79 68 98 100
60 58 69 73 64 64 42 39 39 44 39 36 39 39 44 52 63 59 55 55 54 52 49 48 50 54 62 68 74 84 90 93 96 99 98 89 80 77 75 90 99 96 99 92
59 72 77 72 74 50 38 38 42 41 38 42 46 58 58 58 55 59 52 48 46 49 52 52 54 57 64 76 84 90 96 98 97 84 74 69 72 81 89 96 97 73 63 49
64 69 70 83 71 67 52 40 29 28 46 43 52 64 65 56 52 64 56 53 51 51 52 53 62 75 85 89 92 92 86 78 74 69 70 79 81 98 97 65 57 53 47 36
88 90 75 94 80 73 54 34 26 42 49 41 43 51 55 52 48 53 58 56 54 54 58 65 74 78 81 82 82 76 64 60 63 70 89 98 87 71 66 52 38 33 33 34
75 85 88 87 82 68 41 37 40 42 34 36 42 44 51 50 55 59 58 56 58 59 64 68 67 66 63 62 62 56 58 75 94 92 76 65 52 44 43 45 45 48 51 52
74 67 75 68 71 54 41 36 29 28 32 40 36 42 43 46 56 60 60 60 60 62 62 60 59 59 64 70 74 83 95 73 62 51 46 43 44 46 49 51 51 52 53 55
62 59 65 62 60 68 60 49 42 33 32 38 37 39 42 41 56 61 61 61 60 59 58 62 64 69 77 75 88 76 62 52 47 45 46 48 47 44 45 44 42 40 36 32
70 67 77 75 80 78 71 60 47 43 44 45 48 44 45 46 61 61 61 60 60 63 68 70 73 85 93 90 61 52 50 49 49 47 44 38 30 24 20 15 10 8 8 11
68 71 74 65 53 52 54 50 53 49 52 52 49 59 59 57 58 63 63 64 65 71 76 85 86 86 64 57 53 52 47 41 33 25 22 20 15 10 8 6 6 6 8 12

GFSCGP_850_rhum_063.txt.gz
RH
33 32 36 30 30 29 29 30 31 26 29 31 36 35 38 82 80 84 90 90 82 79 72 64 56 59 62 71 77 78 70 71 62 54 55 71 68 72 83 79 80 83 83 74
34 39 32 30 32 33 34 34 32 29 28 29 31 30 34 67 69 72 76 84 75 79 75 68 64 55 57 60 72 75 76 76 70 63 53 69 76 82 81 83 85 91 69 72
38 30 34 33 36 36 34 35 36 32 35 34 32 26 36 38 58 69 78 76 72 57 59 66 61 50 51 51 53 62 68 77 80 76 74 74 79 83 87 83 90 77 70 76
33 30 34 39 36 35 40 32 32 35 37 34 28 29 27 31 40 52 59 75 68 58 54 54 59 61 58 55 52 54 70 77 80 83 81 74 72 75 77 76 81 72 70 78
28 37 38 38 36 33 34 36 37 37 38 36 36 32 27 34 32 34 43 55 68 54 51 48 38 46 50 54 55 57 68 75 80 82 82 78 74 74 73 86 83 73 75 79
27 33 34 31 32 32 36 38 37 42 42 44 38 34 29 26 30 32 31 41 50 54 49 48 48 37 38 45 53 58 62 65 68 70 78 79 79 71 83 95 83 77 83 78
34 33 31 29 32 32 33 37 43 48 49 45 40 42 32 28 27 28 30 38 37 38 42 42 46 51 42 38 40 47 56 61 67 72 73 72 73 84 97 97 82 88 87 75
36 34 32 32 29 33 37 36 50 41 44 39 41 42 26 28 28 33 37 33 35 37 38 40 37 40 46 37 37 41 48 55 53 59 66 72 71 76 98 99 86 95 86 72
44 35 34 38 33 30 42 40 36 56 66 63 42 33 22 28 27 34 39 33 32 29 33 37 39 40 41 48 36 34 39 45 51 55 62 78 82 82 98 99 98 86 77 72
37 36 40 41 37 39 34 37 46 50 52 50 38 38 26 26 25 34 31 39 32 34 30 33 36 37 39 44 45 41 42 47 51 56 61 70 80 88 99 100 100 79 76 75
36 32 34 41 42 38 42 45 45 40 46 46 49 36 34 26 24 33 32 32 31 30 31 33 34 36 37 38 40 42 47 52 54 60 63 75 80 84 93 96 97 99 79 77
37 43 48 36 36 35 37 41 42 54 48 56 56 43 26 28 28 31 35 29 33 28 27 30 34 37 38 38 40 43 50 56 59 62 75 81 66 74 80 80 99 100 95 92
42 43 41 35 36 43 41 39 43 49 55 53 61 42 28 28 27 29 29 24 28 33 34 34 34 38 41 42 44 49 54 60 60 57 60 62 63 70 88 98 100 98 100 100
30 46 40 36 30 39 51 47 44 43 58 51 49 36 29 27 27 26 26 23 24 27 31 38 43 48 49 52 59 59 60 62 57 60 63 78 89 100 100 100 97 94 98 100
40 42 43 36 31 39 40 40 47 43 41 46 38 40 30 29 28 29 28 25 24 25 28 35 53 60 62 66 68 66 63 64 68 86 99 100 100 100 98 97 100 100 100 96
48 44 48 42 44 39 36 35 42 44 39 38 38 40 32 30 32 35 38 34 44 49 49 48 54 64 67 74 83 90 92 92 96 98 99 100 100 92 93 100 100 96 99 96
52 60 58 49 48 46 59 49 41 40 39 38 45 36 36 37 39 49 61 61 59 56 57 56 59 62 65 69 74 80 87 91 92 93 98 96 91 98 100 100 98 95 93 98
61 59 62 68 63 71 40 40 36 39 38 36 36 35 34 39 63 62 63 62 60 59 55 51 52 56 64 71 78 86 93 95 94 94 96 99 100 98 90 94 93 98 99 90
54 65 70 75 62 49 36 40 41 42 30 36 35 36 48 66 62 62 60 61 59 58 56 54 57 61 67 79 89 94 100 100 100 100 96 85 83 89 89 98 99 93 63 55
62 64 69 73 64 63 46 35 34 30 40 33 38 48 59 62 56 48 56 56 57 58 58 58 68 77 83 91 96 94 96 94 86 79 81 83 82 98 95 74 68 62 53 37
79 81 70 78 73 60 46 38 27 44 37 33 41 50 59 48 46 48 55 57 60 64 68 72 81 82 87 92 91 84 80 79 76 75 74 97 86 72 68 57 42 36 37 39
70 76 82 79 78 61 44 35 43 40 30 26 38 45 59 47 52 57 59 60 64 66 73 76 74 77 79 77 76 70 67 76 73 95 81 70 58 46 42 41 42 45 46 45
78 63 70 62 61 52 37 32 26 27 26 29 32 43 48 48 58 62 63 65 65 67 68 68 65 63 61 60 61 64 89 98 76 60 50 42 42 46 46 45 40 29 20 12
67 68 64 59 53 56 47 39 38 33 30 26 29 37 44 45 57 62 64 64 63 62 60 59 59 62 69 73 78 92 76 61 50 44 43 46 44 35 24 16 11 8 7 7
66 67 71 68 61 68 54 44 40 42 39 39 42 41 44 44 57 58 62 63 62 62 64 65 66 70 77 90 84 63 52 49 48 43 34 24 19 14 10 7 6 6 10 16
69 66 71 68 48 40 35 28 39 41 41 44 40 50 52 44 48 59 62 62 64 68 70 71 83 92 88 69 52 50 47 39 28 23 19 14 10 7 6 6 7 8 12 16

GFSCGP_850_rhum_066.txt.gz
RH
26 25 25 17 18 19 17 20 21 18 19 22 21 22 19 38 50 49 57 60 66 73 62 75 80 79 70 76 82 89 94 98 91 85 81 80 84 93 92 82 82 69 68 73
27 28 20 21 21 23 22 23 22 20 20 23 21 20 21 34 47 40 46 54 62 61 68 66 69 76 82 83 88 90 93 98 97 92 84 76 74 85 95 63 73 75 74 76
23 22 23 24 25 26 23 25 24 23 21 22 24 21 20 23 38 42 43 44 50 53 59 66 67 71 76 76 83 87 92 92 96 94 81 85 91 95 94 75 76 73 76 81
21 19 24 25 23 22 26 21 23 24 27 25 23 20 17 20 25 34 41 46 45 52 54 56 65 69 74 75 76 86 91 93 96 85 90 84 82 83 93 82 73 72 84 75
23 23 26 25 23 22 23 26 26 27 28 27 25 21 17 19 18 19 26 36 44 46 51 49 54 62 70 75 79 80 85 93 98 95 93 88 89 86 93 84 76 74 82 74
17 24 23 22 24 23 26 29 29 29 29 32 25 25 17 15 16 17 18 21 32 44 45 48 50 52 58 74 82 78 79 85 90 80 77 87 92 99 89 82 79 84 89 83
22 21 22 24 25 26 26 30 34 41 36 32 28 25 18 15 18 18 20 25 26 29 44 47 47 55 53 63 75 55 55 75 80 71 75 84 87 94 81 71 88 88 93 83
26 28 22 22 22 23 27 26 32 34 34 27 29 24 16 16 17 20 27 30 30 32 33 41 48 49 57 61 65 42 44 51 57 57 62 65 63 65 70 78 86 87 96 85
25 21 19 23 23 21 32 32 25 37 48 41 23 19 15 15 18 22 18 25 29 31 34 38 42 50 57 64 70 36 42 74 82 52 53 55 68 58 60 85 90 92 98 97
22 25 22 29 28 29 27 24 34 33 42 37 24 24 18 16 16 17 16 18 27 38 36 35 38 45 54 62 70 80 75 74 78 70 51 54 65 69 80 90 92 99 100 100
18 20 34 33 32 26 33 31 29 28 31 35 34 25 16 15 14 17 16 21 23 29 38 40 40 42 50 60 68 76 80 74 79 85 69 61 63 70 83 95 99 100 100 100
20 22 28 25 24 26 23 24 27 33 33 36 41 30 15 15 19 18 19 25 25 32 38 45 47 51 56 62 66 70 78 77 80 91 98 70 77 80 80 76 86 100 100 100
22 25 31 28 28 32 28 25 25 27 34 32 47 32 19 19 20 20 20 20 26 31 34 44 51 60 65 69 73 78 87 91 95 91 90 79 86 92 91 92 99 100 100 95
24 22 26 31 21 18 25 25 25 25 35 29 27 22 17 18 17 17 19 22 23 28 32 39 49 58 69 81 92 80 73 74 78 84 89 97 98 100 99 100 100 99 94 92
25 25 24 20 16 16 18 18 19 25 23 25 25 21 17 17 17 17 22 26 25 26 27 37 52 66 76 87 85 92 76 79 91 100 100 99 99 99 99 100 99 96 99 100
26 27 26 29 21 22 22 20 19 23 22 23 25 23 16 18 22 24 26 28 36 49 52 50 59 79 92 90 94 95 98 100 100 99 99 99 100 99 96 98 98 100 99 99
36 30 36 34 32 33 52 34 24 25 26 26 26 20 17 21 22 24 33 42 51 64 71 73 78 87 92 85 92 95 97 100 100 100 99 98 97 94 100 100 99 98 96 93
45 38 39 42 63 76 25 27 22 24 22 20 22 20 20 20 27 40 50 50 60 68 76 81 87 92 92 90 90 94 99 98 96 94 96 95 98 100 99 98 93 94 99 97
40 42 54 72 45 29 28 31 30 30 26 20 23 19 17 29 40 45 57 61 66 74 77 80 84 89 93 95 95 94 95 90 90 95 100 100 100 93 87 96 98 99 98 88
48 49 50 59 50 77 32 22 24 24 32 18 19 20 21 40 40 23 59 67 72 74 77 80 84 88 90 91 93 95 98 99 100 99 90 86 81 92 98 93 85 78 71 63
68 66 70 58 68 40 28 29 26 37 35 20 20 23 32 36 33 50 61 67 70 74 77 80 80 84 88 92 90 89 92 93 98 90 78 85 97 77 71 63 49 48 54 41
61 67 80 64 87 72 35 32 32 25 34 26 30 30 38 48 59 60 62 66 70 73 77 76 77 81 88 89 87 86 88 87 77 76 95 80 65 50 40 40 43 45 50 38
62 50 48 47 40 46 33 24 27 34 26 35 31 36 44 59 57 60 63 66 68 68 70 74 76 79 78 76 75 76 80 81 90 72 60 48 40 40 39 36 26 20 23 22
45 52 55 54 29 36 41 34 45 38 36 38 36 44 57 54 58 61 62 64 66 67 70 74 76 78 82 83 80 80 85 69 60 45 41 42 38 28 19 15 12 21 14 21
40 52 44 45 35 48 48 47 38 45 42 35 36 48 53 56 58 59 61 64 65 68 69 71 76 80 75 78 83 80 64 51 45 42 34 24 18 13 11 10 7 9 27 9
47 46 64 58 38 42 29 44 44 49 54 47 45 54 59 57 57 59 62 65 71 69 74 80 80 72 79 83 66 51 46 43 33 23 19 15 12 9 8 22 53 25 13 11

GFSCGP_850_rhum_069.txt.gz
RH
20 21 23 17 16 15 15 15 17 16 15 17 20 20 16 25 31 37 44 43 49 52 58 67 64 68 64 69 73 78 89 96 94 90 81 69 66 66 71 86 87 87 84 78
19 25 17 15 13 14 16 18 19 17 15 17 17 16 13 22 30 31 36 46 46 52 58 66 67 65 68 73 70 69 69 79 86 76 71 63 63 63 69 84 81 98 78 66
21 18 15 19 18 20 20 21 21 20 17 15 15 16 15 18 26 27 28 35 42 53 43 53 62 66 64 64 72 69 68 67 74 70 69 68 70 69 72 85 98 95 73 81
18 15 19 20 20 19 22 16 18 20 21 40 19 28 19 14 19 25 25 30 35 45 43 48 50 56 64 64 67 72 69 66 71 74 72 72 65 66 68 83 95 99 92 80
18 16 20 21 20 16 20 19 20 21 23 21 18 16 18 11 13 17 22 27 28 34 36 40 49 49 54 60 65 72 70 68 70 82 76 74 74 69 72 80 93 100 80 78
15 14 15 16 16 18 17 21 22 22 24 30 21 19 21 17 12 12 14 20 25 28 32 34 36 44 49 59 68 69 71 70 71 79 86 81 81 75 67 81 93 98 99 72
18 18 16 17 20 19 22 26 34 37 34 33 20 21 16 13 13 13 14 17 19 24 30 34 32 35 41 52 65 70 70 66 72 79 84 89 86 84 79 92 88 97 86 70
23 24 17 18 19 23 22 23 34 42 39 29 19 18 15 11 11 12 14 17 22 23 23 31 34 35 37 42 55 69 68 70 67 81 88 94 96 92 92 96 98 84 86 86
20 19 13 15 16 17 21 26 19 29 28 35 22 16 13 10 11 14 12 14 18 24 24 24 30 35 39 44 47 62 70 68 68 74 90 97 97 99 97 90 98 99 97 99
16 22 14 16 17 17 21 20 30 27 37 42 22 18 16 14 14 12 12 13 17 27 26 27 27 31 38 42 49 59 70 63 66 75 93 97 100 99 91 76 70 85 97 100
15 19 20 20 24 21 23 27 24 21 26 37 33 21 14 13 12 13 13 14 14 18 27 28 29 31 36 43 50 60 70 68 62 69 83 97 100 100 93 86 97 97 100 100
17 20 24 24 17 14 17 22 22 32 29 28 31 28 13 13 12 14 14 15 16 18 21 29 34 34 36 43 49 57 67 72 67 68 77 93 100 100 100 100 95 99 99 100
18 22 31 24 21 21 23 21 20 22 23 30 53 32 13 13 14 14 14 14 16 19 19 27 35 40 44 48 52 57 66 69 66 70 79 94 100 99 99 99 100 100 99 100
22 20 25 31 23 20 25 19 19 22 39 32 27 20 14 13 14 13 14 15 14 17 20 22 31 38 48 55 60 63 76 80 82 81 86 99 100 99 99 99 99 100 100 95
22 26 21 18 16 15 16 18 18 21 21 28 22 19 13 13 13 13 16 17 18 17 18 22 28 40 52 67 83 98 89 88 90 97 98 98 99 99 100 99 100 100 97 96
22 30 24 22 18 16 16 14 15 14 14 15 15 16 12 13 12 13 16 19 20 26 30 26 32 47 61 80 92 99 100 100 100 99 98 100 100 100 100 100 100 100 98 99
28 34 29 35 20 21 34 20 17 16 15 16 22 17 13 13 13 14 15 21 27 39 46 44 49 67 78 87 99 98 98 98 99 100 100 100 100 95 97 99 100 100 98 93
32 32 34 49 63 60 25 18 16 18 16 15 16 15 13 13 14 22 26 25 38 48 58 64 70 77 84 92 99 99 99 99 99 99 100 99 96 99 99 99 97 94 94 96
32 38 49 57 50 30 20 22 24 21 20 15 15 14 14 14 22 27 33 35 45 54 61 68 74 80 83 86 88 92 96 99 100 100 100 98 98 99 94 89 92 94 89 96
33 41 52 52 54 60 27 18 21 17 30 16 15 15 16 20 30 16 39 49 58 60 63 68 73 75 77 80 82 85 89 94 100 99 100 99 90 86 97 93 98 87 77 71
63 67 75 59 56 33 18 17 20 38 36 16 16 16 16 20 22 37 50 56 56 58 62 68 71 72 76 81 85 85 90 92 96 98 96 83 91 86 80 79 74 66 66 72
62 63 83 62 73 66 26 29 31 28 20 21 20 19 21 31 46 49 53 55 57 59 64 64 68 73 79 80 80 78 82 89 90 85 83 80 74 69 70 71 72 67 64 63
77 48 55 44 44 30 29 23 25 26 29 24 26 23 26 46 47 50 53 56 57 60 59 63 69 76 77 76 75 75 75 79 81 82 78 75 68 59 54 56 51 43 47 57
28 24 44 42 32 29 31 31 29 32 32 28 34 29 33 46 46 49 51 54 57 58 60 63 69 70 70 68 69 73 76 78 74 72 69 62 56 45 32 36 40 46 61 62
26 24 32 34 28 24 32 39 36 34 37 37 35 35 36 46 47 47 50 52 54 57 61 64 65 68 71 74 77 75 72 69 68 62 55 48 31 34 36 32 34 29 18 11
24 33 49 47 28 35 31 47 45 41 40 44 45 41 42 45 47 48 49 53 55 58 62 66 73 75 75 74 72 70 67 61 55 50 44 29 23 20 39 48 51 27 35 19

GFSCGP_850_rhum_072.txt.gz
RH
21 24 25 20 19 17 15 16 15 22 17 17 16 20 23 21 22 29 34 35 40 46 62 69 73 86 86 71 59 59 66 76 86 88 89 87 76 70 73 70 71 73 71 88
22 26 18 16 15 14 14 17 16 16 15 16 15 21 16 18 25 29 36 36 42 45 54 61 64 71 66 63 72 79 79 90 84 77 77 72 64 63 69 76 85 77 82 84
25 19 17 17 18 18 17 19 19 21 16 17 20 21 16 16 22 25 32 39 48 47 55 63 65 65 70 73 75 76 84 80 68 73 80 70 65 64 66 74 81 71 82 100
19 16 17 18 20 17 22 16 17 17 20 27 25 35 20 16 19 23 28 41 38 42 55 60 65 68 67 66 69 75 71 78 73 74 72 67 65 64 66 71 76 73 78 100
20 18 17 21 18 16 20 16 20 20 22 23 29 34 19 16 19 21 22 32 39 43 42 57 58 66 67 67 70 65 64 64 65 62 72 66 66 65 63 66 77 79 76 99
16 13 13 15 16 15 15 18 20 21 24 36 23 23 24 25 16 15 18 23 30 44 42 42 50 56 65 65 64 69 69 67 63 70 62 74 71 68 68 73 75 74 76 72
17 16 12 13 17 15 19 24 38 46 43 42 30 24 18 26 16 12 14 19 24 30 39 42 44 48 51 56 61 65 69 67 66 71 73 67 79 72 70 71 75 80 78 85
24 25 15 14 18 20 21 24 42 79 56 38 31 24 12 12 11 12 12 14 18 21 29 32 33 45 47 50 58 62 69 68 67 68 75 77 69 84 79 70 80 74 82 79
24 21 13 15 16 17 23 28 20 34 39 50 29 20 12 11 11 11 12 13 16 20 21 26 32 32 40 45 51 58 65 69 67 69 70 78 85 82 85 87 86 77 90 88
20 26 15 14 15 16 18 18 30 28 47 47 24 22 34 18 14 13 12 13 17 21 23 24 24 32 34 37 44 49 57 67 69 67 71 73 84 88 87 92 77 68 89 100
18 22 21 14 18 20 20 23 28 23 28 44 48 31 21 17 12 14 13 13 14 18 24 25 26 26 34 37 42 46 54 63 67 68 70 76 88 88 94 95 79 87 93 97
18 21 29 19 15 15 17 22 25 38 32 34 54 38 15 17 14 13 13 13 15 16 19 25 27 28 29 35 41 50 54 65 67 63 66 70 84 86 96 98 98 99 99 99
20 25 33 27 20 19 22 18 20 23 27 35 53 37 17 13 14 13 14 14 13 16 17 23 30 33 33 35 42 46 60 65 69 68 67 75 89 74 88 99 98 99 100 100
34 24 27 36 28 24 25 19 18 24 44 38 34 25 20 15 16 16 15 20 16 15 16 18 27 34 39 42 46 51 58 65 69 66 69 72 83 90 99 99 100 100 100 100
37 36 25 21 18 18 20 22 21 22 22 32 32 23 18 15 13 14 14 18 22 26 16 16 18 34 44 52 54 59 64 69 71 77 85 86 95 91 98 100 100 100 100 100
30 43 29 31 20 19 20 18 19 18 17 17 18 20 14 11 10 14 12 13 17 18 27 22 19 40 54 69 69 74 80 83 87 91 98 100 99 100 100 100 100 100 100 100
39 40 37 44 26 22 34 23 17 15 15 16 21 17 14 15 14 14 13 15 16 24 36 38 31 55 67 76 77 87 97 98 99 98 99 98 98 96 100 100 99 99 100 99
48 44 40 55 60 55 26 18 16 18 16 16 15 14 14 14 13 15 19 19 24 34 44 45 55 75 81 83 86 94 98 99 99 100 98 99 96 100 100 98 98 96 94 93
39 51 76 61 54 34 24 21 22 23 24 18 16 15 14 13 18 22 24 24 26 40 51 59 68 76 88 86 91 97 98 99 100 98 98 100 99 98 97 92 94 92 89 90
37 43 67 70 59 63 36 21 19 22 36 18 17 20 18 18 35 27 27 33 42 51 58 67 75 80 86 92 95 97 98 98 98 97 99 100 97 97 93 91 89 85 90 87
64 68 70 72 74 48 24 22 20 42 40 23 18 17 18 22 27 28 36 46 53 56 60 68 74 76 79 82 85 87 91 98 99 99 97 94 88 88 90 92 90 79 70 62
69 69 81 68 72 66 24 28 32 31 23 21 20 19 21 28 32 33 42 50 53 55 61 67 69 71 76 80 82 87 92 97 98 99 96 88 86 80 81 77 68 67 68 66
84 82 63 51 56 40 30 27 28 28 28 30 27 27 24 28 38 44 49 51 52 56 63 65 68 74 79 80 79 79 86 93 92 86 80 75 72 69 72 72 65 53 49 46
39 42 54 45 43 46 33 32 32 30 32 32 29 32 28 35 42 46 50 51 53 56 58 62 70 75 75 72 72 78 80 80 82 79 76 70 63 53 44 43 39 44 43 49
34 36 43 42 33 31 34 27 33 33 34 34 33 33 32 37 44 46 48 51 53 55 57 63 71 72 72 69 71 75 78 77 75 72 65 60 50 45 36 40 41 29 28 26
25 30 46 61 33 37 36 40 38 42 36 40 41 41 39 36 45 46 47 49 53 55 59 64 66 66 68 73 74 72 70 69 66 58 56 52 38 37 46 47 36 32 24 24

GFSCGP_850_rhum_075.txt.gz
RH
26 36 39 33 28 25 26 24 22 19 18 23 26 25 37 55 60 72 67 71 80 70 68 64 88 92 91 91 90 89 72 68 74 70 70 66 61 62 73 79 72 70 66 44
33 36 29 24 22 22 22 20 22 19 22 24 18 22 25 34 60 52 62 59 76 85 78 71 70 87 78 61 56 53 52 50 53 56 56 58 61 67 72 75 73 77 76 68
34 30 24 24 23 23 20 22 24 25 20 20 25 29 24 26 32 39 42 49 63 73 85 80 66 63 63 57 54 58 64 70 66 58 66 78 84 71 67 78 77 77 74 67
27 24 25 24 25 22 25 21 21 25 27 34 27 48 29 24 32 33 40 48 54 67 70 74 67 52 50 53 61 67 72 74 70 69 72 74 77 77 64 60 68 70 75 75
25 27 26 26 23 20 24 23 22 25 32 32 34 46 40 24 30 34 46 50 50 52 61 67 67 63 49 49 58 67 77 85 75 66 69 76 75 69 68 68 72 81 85 77
22 16 20 21 18 20 18 22 26 26 32 50 34 41 38 27 22 26 39 45 50 50 55 62 64 64 63 61 56 68 78 80 80 74 69 76 75 67 63 68 67 70 76 78
25 22 18 16 20 21 21 28 54 67 61 64 34 40 36 29 26 21 28 45 43 44 53 59 66 69 66 63 62 64 70 79 75 69 65 69 73 69 63 60 65 69 70 73
34 35 21 16 19 25 26 32 67 70 75 60 43 42 27 25 21 14 15 34 43 44 47 53 56 61 62 58 62 64 65 67 65 70 68 64 69 71 66 65 68 72 73 70
31 29 16 15 17 21 30 36 30 56 50 66 53 32 22 18 15 15 14 15 35 43 43 45 53 56 56 54 53 58 64 68 67 63 68 69 71 69 69 66 71 72 73 70
27 35 20 17 18 21 23 25 38 41 70 72 44 36 41 24 20 17 15 20 17 21 34 42 45 48 48 46 46 51 55 58 57 62 66 71 76 70 71 71 76 74 69 70
22 29 30 21 24 25 28 28 28 36 51 59 57 50 29 27 23 16 19 16 15 18 20 22 30 40 39 43 46 48 50 58 62 62 60 69 72 75 76 81 88 90 72 67
24 36 42 32 22 18 20 29 33 62 48 51 62 54 20 19 15 18 16 14 17 22 23 20 21 30 42 48 46 47 50 59 59 61 68 65 68 74 81 88 90 73 78 98
33 43 58 41 27 20 23 25 26 33 43 48 73 59 23 23 17 16 16 15 16 18 23 23 21 18 34 43 43 51 53 58 52 63 67 69 69 77 77 76 85 71 84 99
32 48 50 52 37 28 30 25 25 32 53 47 50 39 31 27 22 18 15 16 18 19 17 23 25 23 19 41 52 54 63 66 69 70 66 68 65 69 68 75 85 86 88 100
41 51 42 34 25 24 28 29 28 28 30 46 39 36 32 24 20 19 16 17 18 18 17 20 25 30 34 32 33 55 63 63 60 58 60 65 70 74 77 90 91 99 99 100
39 47 40 44 34 24 26 27 26 25 25 25 27 34 26 19 15 15 15 20 21 21 21 21 30 36 41 39 37 43 54 63 72 73 76 84 98 100 99 99 100 99 100 100
41 50 50 52 40 34 46 33 25 25 24 25 30 26 20 19 17 15 16 16 22 25 21 22 35 42 46 49 50 54 57 64 73 82 96 99 98 96 98 98 99 99 99 100
56 59 65 74 58 58 33 21 22 26 22 20 19 19 18 18 14 17 17 19 24 23 23 34 39 51 57 61 65 71 82 89 96 99 95 98 99 98 92 97 99 100 98 93
50 62 78 68 62 46 36 26 25 26 30 20 20 20 18 15 21 24 20 22 22 24 35 44 56 63 68 77 84 88 90 93 99 99 98 93 93 93 92 95 92 90 87 90
51 60 79 86 74 71 44 33 22 22 43 22 20 23 24 23 39 37 25 21 30 34 40 49 59 68 76 81 84 86 86 98 98 98 97 97 97 98 96 92 92 92 91 87
79 86 86 92 98 78 37 27 24 41 51 22 22 22 23 30 37 23 27 31 29 37 48 58 65 71 78 82 82 88 98 98 97 97 98 99 100 98 96 94 90 87 92 96
74 79 84 86 88 94 36 29 37 41 27 20 23 25 27 24 25 27 32 35 41 46 56 63 72 83 90 90 87 93 97 99 99 99 100 100 99 94 91 91 91 86 83 80
72 78 77 72 73 54 44 32 32 26 30 33 29 34 33 31 31 34 39 43 47 51 62 70 74 80 84 88 90 94 96 98 98 99 96 96 99 98 95 89 83 73 67 66
58 71 86 77 64 57 56 43 40 39 29 31 32 32 33 34 37 38 39 42 50 58 66 70 72 76 79 82 84 86 91 95 96 98 93 83 77 76 76 74 70 64 54 46
57 63 69 66 49 44 37 37 40 41 42 33 32 34 34 37 38 39 45 50 54 60 65 68 74 80 81 80 82 89 94 94 86 78 74 71 68 65 58 55 48 44 45 47
42 51 65 67 41 42 43 32 33 32 47 42 41 38 37 37 43 44 48 51 55 59 64 72 76 75 74 77 79 80 81 81 79 74 66 57 52 46 41 40 38 32 28 27

GFSCGP_850_rhum_078.txt.gz
RH
28 36 39 38 36 30 31 33 34 28 21 34 38 39 36 64 65 72 80 83 74 62 89 94 96 97 100 93 99 100 98 98 97 88 79 84 93 55 53 49 68 57 52 47
36 41 32 30 31 32 32 34 32 24 19 27 25 23 27 67 67 69 78 85 68 76 81 82 80 87 89 87 87 96 100 100 100 98 83 80 82 62 55 52 50 45 38 38
37 36 28 30 32 34 32 33 31 24 24 22 25 30 25 45 53 67 69 66 62 67 60 54 65 73 85 85 82 78 82 83 87 84 80 71 61 59 54 51 47 46 44 68
29 26 31 33 32 30 36 25 25 26 31 38 26 46 36 32 47 60 63 68 70 72 66 50 46 53 50 50 52 54 54 58 62 63 60 58 57 58 62 66 68 73 70 71
31 32 32 33 31 28 33 26 25 24 29 34 35 44 38 32 45 54 63 65 72 70 66 60 46 39 40 46 48 51 51 47 49 53 54 56 59 60 64 70 67 72 74 70
23 19 26 26 25 25 23 24 30 34 38 50 38 44 44 40 30 44 50 58 68 76 70 65 56 45 41 44 50 57 61 66 64 57 60 67 66 63 57 52 62 60 62 70
23 22 21 21 26 24 25 33 52 55 64 60 40 46 37 31 27 32 47 53 64 66 71 68 66 60 47 45 48 56 64 70 72 73 69 61 59 56 58 58 57 57 61 67
38 45 26 21 24 26 31 34 61 58 70 66 47 49 35 25 24 21 32 47 56 66 65 58 56 58 59 51 50 52 62 65 71 78 77 66 67 69 71 70 66 64 64 63
43 37 22 19 20 20 29 41 36 55 56 68 58 44 26 19 19 19 27 46 55 56 62 55 54 57 58 57 55 52 51 57 62 64 72 78 74 69 66 74 69 65 61 61
34 39 23 20 19 22 26 29 48 58 73 69 57 50 41 28 21 19 30 45 50 48 55 61 62 62 58 54 54 57 53 47 55 66 69 70 68 70 69 68 71 70 64 63
30 37 36 23 25 27 31 34 35 41 61 70 61 51 40 32 27 22 23 25 28 40 44 46 48 54 51 53 56 58 59 61 61 66 68 71 68 66 71 78 78 80 76 78
29 38 43 35 25 22 22 26 32 61 52 57 63 44 28 31 25 21 19 16 22 23 25 30 35 39 46 49 59 61 64 62 64 62 63 64 67 66 69 71 83 72 94 86
34 39 54 36 29 28 31 28 28 38 54 55 76 58 32 28 21 18 18 17 16 17 19 25 29 31 35 39 48 61 62 56 55 73 68 72 72 68 66 70 81 77 71 66
54 49 35 42 37 36 37 29 25 30 51 44 58 41 33 26 29 24 19 16 17 18 23 22 30 26 22 21 34 47 50 49 52 57 65 64 73 68 76 71 69 70 74 83
50 58 48 34 40 39 39 36 28 31 38 40 35 41 34 33 31 25 17 18 20 18 24 25 28 32 28 28 35 42 50 49 52 57 63 64 66 70 79 80 75 81 97 99
62 56 58 62 49 44 47 36 31 30 31 33 36 39 28 23 25 20 18 17 19 19 21 20 20 30 37 30 26 33 46 52 59 64 66 64 68 79 90 100 99 99 100 100
89 63 66 72 50 46 70 49 35 34 30 32 38 32 24 25 24 20 16 19 19 17 21 20 19 19 33 36 37 39 45 58 67 78 83 89 90 94 99 98 100 99 98 100
96 95 71 80 62 90 58 36 28 31 27 28 24 22 25 21 16 16 14 14 18 19 22 24 21 26 36 42 49 57 69 75 79 82 90 100 100 98 96 96 100 99 100 100
88 88 85 77 72 63 50 36 29 32 31 27 22 22 20 18 22 25 18 15 17 22 24 24 28 34 44 53 61 70 76 86 94 98 100 99 99 95 98 98 98 99 100 100
74 78 86 90 71 82 46 38 30 29 47 27 25 26 22 27 42 37 22 19 22 25 23 23 31 44 57 67 77 86 90 91 93 96 99 96 98 100 95 94 90 95 96 95
99 94 90 96 96 86 56 42 26 46 49 28 23 23 24 31 33 17 23 23 22 21 23 34 44 54 67 78 84 88 90 94 97 97 96 96 97 95 94 96 92 91 90 90
95 100 98 99 99 92 54 47 40 41 28 31 28 26 24 22 22 22 26 24 28 31 45 51 55 69 78 82 84 86 94 98 98 98 99 100 99 99 97 93 94 95 93 94
76 86 85 78 81 60 54 60 51 42 39 36 35 33 30 25 26 26 26 32 43 49 54 64 68 77 84 86 86 82 91 98 97 98 100 100 100 100 98 96 95 99 100 94
64 72 80 75 60 60 47 41 39 43 42 38 37 32 31 31 35 42 46 51 54 58 66 75 77 84 90 94 91 91 91 95 98 99 100 100 100 100 100 98 84 75 72 75
56 68 69 71 53 48 40 40 33 36 39 42 39 39 34 32 38 42 50 54 60 68 72 75 78 84 89 94 97 98 96 96 97 98 92 87 88 84 75 72 67 67 69 56
50 63 74 70 44 43 40 30 25 34 35 40 36 41 39 36 36 41 49 56 63 69 74 76 80 82 88 91 94 99 99 98 94 89 72 69 66 60 58 65 63 50 43 41

GFSCGP_850_rhum_081.txt.gz
RH
31 41 44 38 38 32 32 35 39 33 27 30 34 36 44 68 74 78 94 89 56 43 65 97 98 98 98 100 99 100 99 99 97 90 81 87 76 66 60 69 63 53 58 54
36 45 35 32 35 36 37 40 40 33 27 31 33 34 30 70 69 67 77 92 74 50 45 84 89 97 99 100 100 100 99 99 99 89 88 87 79 72 78 65 52 50 46 45
37 36 32 33 36 38 39 42 40 37 29 26 28 32 31 52 60 64 64 76 78 61 61 98 95 95 90 95 98 100 97 97 100 93 80 83 78 66 71 52 54 54 56 64
33 25 33 36 35 36 43 34 34 34 36 42 29 47 36 40 65 71 64 69 73 56 59 60 98 89 82 78 84 89 96 94 92 93 65 60 64 82 60 51 53 62 62 58
33 34 30 37 37 33 37 32 36 36 37 36 35 46 40 40 57 60 69 70 74 64 61 58 52 41 42 67 67 70 76 93 98 99 93 80 77 84 58 52 52 52 52 50
26 24 28 27 26 32 30 31 32 41 42 51 39 43 44 44 37 43 54 63 67 67 62 60 45 41 40 44 42 43 51 61 71 82 87 83 78 78 71 57 52 46 43 42
28 26 22 24 32 31 33 35 55 55 59 57 40 52 40 32 32 39 50 56 54 57 60 62 59 45 41 40 40 43 43 48 58 57 54 53 49 47 48 48 48 49 44 43
42 42 25 22 27 31 36 40 64 56 64 56 49 61 44 29 26 25 32 36 48 57 60 53 56 54 43 41 42 47 51 49 44 43 44 47 47 49 51 53 50 44 40 39
46 40 25 20 22 22 33 44 31 49 62 74 59 49 34 22 23 33 36 47 50 54 55 48 49 56 54 45 42 42 46 49 55 57 56 56 57 60 62 61 58 56 58 58
40 45 30 23 22 24 27 33 48 62 69 75 62 54 50 33 24 23 41 50 50 52 58 60 52 51 52 51 50 45 45 46 49 62 66 66 68 68 66 66 65 68 74 80
42 39 42 26 30 29 36 38 38 44 64 63 68 57 41 37 28 23 30 45 40 44 46 44 44 46 49 51 54 55 50 49 51 57 65 72 76 76 74 76 76 74 75 76
66 51 46 37 28 23 23 29 39 54 55 63 64 46 28 33 34 31 22 23 31 29 28 30 38 38 44 44 51 50 51 55 55 54 45 54 69 73 72 72 70 71 76 80
78 76 61 45 36 28 35 31 32 44 57 66 67 57 32 33 28 23 19 16 24 30 37 35 40 42 38 39 44 49 53 53 54 58 59 59 59 63 66 68 71 76 78 88
83 93 88 61 39 33 38 34 34 38 58 53 48 43 35 31 32 28 23 20 18 21 29 31 34 32 31 33 38 41 42 47 53 59 62 63 63 64 67 70 77 80 87 99
87 100 66 52 34 38 42 43 40 43 40 44 41 41 33 31 30 27 21 20 18 18 23 25 25 27 27 31 32 37 35 40 46 56 64 67 71 79 86 89 89 83 97 100
84 98 76 62 39 33 38 48 47 47 46 33 33 33 30 27 23 28 23 22 19 17 16 22 25 25 24 25 24 30 32 45 55 59 65 72 80 85 85 82 89 100 100 100
99 100 98 76 58 55 71 56 43 40 46 40 44 34 30 32 33 30 23 21 19 18 17 17 23 23 23 28 27 28 28 34 51 64 71 74 81 84 88 95 99 99 99 100
94 100 100 87 67 89 58 45 42 41 40 37 31 29 29 27 22 19 18 18 17 18 19 18 21 20 24 33 36 37 39 48 59 70 77 82 95 100 100 100 99 99 100 100
78 97 100 98 81 63 55 51 50 48 46 34 32 26 23 21 22 22 16 14 14 14 17 20 22 23 23 29 41 53 61 68 77 86 98 100 100 99 99 99 100 100 100 100
85 79 98 100 98 87 59 43 35 33 62 35 31 32 28 29 37 32 16 16 15 15 20 23 25 24 29 36 50 60 71 78 86 97 100 99 100 100 100 100 100 100 100 100
99 99 98 97 98 83 57 55 44 76 68 35 27 28 29 32 32 16 19 18 19 22 25 26 25 26 38 52 63 75 85 95 100 100 100 100 100 100 100 100 100 100 100 100
86 95 100 99 99 92 57 58 52 56 36 36 27 22 27 21 20 17 20 24 28 28 29 30 35 54 70 82 89 93 95 99 97 96 100 100 100 100 100 100 100 100 100 100
75 76 91 88 95 69 56 53 51 52 49 46 44 38 26 27 25 26 29 35 39 37 41 60 65 77 90 96 95 87 91 98 95 100 99 99 99 100 100 100 100 100 100 100
57 66 84 83 64 61 59 45 50 44 44 44 44 37 38 37 31 43 49 54 58 65 70 77 78 84 92 96 94 90 93 99 98 97 98 99 100 99 99 99 100 100 99 97
57 78 78 76 58 52 42 41 39 40 41 50 43 38 36 38 40 41 50 61 67 68 73 82 84 90 98 100 99 96 93 92 91 94 97 99 99 100 99 99 93 89 87 94
60 65 77 74 48 47 40 32 31 37 35 35 48 42 39 43 42 48 64 72 74 76 84 89 91 94 100 99 100 100 100 99 92 95 96 93 94 90 84 87 94 96 97 93

GFSCGP_850_rhum_084.txt.gz
RH
35 43 50 45 42 36 35 37 39 37 29 29 34 36 32 56 74 79 82 87 86 83 85 98 98 93 87 98 99 100 100 100 97 94 90 87 81 74 68 63 64 71 70 57
43 49 33 37 39 38 37 40 43 36 30 32 32 35 32 47 70 71 76 78 78 78 74 98 100 100 96 99 100 100 100 100 100 100 95 86 63 78 84 84 77 68 63 55
37 36 33 37 42 42 43 43 42 36 37 33 34 38 31 36 64 64 64 59 62 64 76 89 90 91 100 99 98 97 99 100 100 99 96 96 77 71 89 81 60 73 70 67
38 28 33 41 40 37 46 39 36 39 40 51 33 54 38 30 38 72 70 66 57 60 56 67 55 66 69 87 99 99 97 100 100 96 86 77 70 67 85 71 71 84 67 60
38 32 35 39 40 35 35 35 41 40 44 42 40 52 39 35 41 40 68 69 58 58 53 51 49 39 55 85 93 99 98 97 99 97 86 86 87 65 60 65 84 77 71 58
31 26 29 30 31 35 32 36 38 44 49 63 46 44 42 38 39 38 42 52 63 58 58 50 54 45 41 59 69 76 87 93 91 92 87 86 87 74 71 65 72 55 51 52
31 29 23 26 32 37 37 42 57 59 66 64 42 50 35 31 32 33 34 39 43 54 59 56 55 49 43 45 55 61 71 77 91 90 87 78 70 72 67 63 59 56 50 54
30 33 30 25 31 39 43 44 70 60 68 55 51 60 46 35 30 26 26 29 45 51 54 53 55 57 45 42 45 42 42 55 64 72 81 78 80 78 74 72 72 58 50 51
49 44 27 23 22 24 35 49 37 53 64 73 60 48 36 30 26 27 33 42 47 44 47 47 53 57 53 42 38 36 37 37 38 42 48 62 67 72 74 71 70 69 60 48
43 57 33 28 23 25 30 36 49 64 64 71 63 58 46 37 32 26 34 47 34 49 53 53 51 50 54 50 42 39 39 40 41 39 40 41 42 43 46 46 45 47 46 48
72 49 42 29 33 32 37 36 41 49 62 60 66 61 48 34 32 32 27 31 28 33 37 39 39 43 52 57 54 47 42 41 43 47 47 47 46 47 50 52 54 56 57 60
78 91 77 43 25 25 28 30 33 45 58 67 60 42 30 35 33 31 26 19 21 22 22 24 37 43 47 48 52 56 52 48 45 43 44 43 44 55 60 62 65 70 74 76
65 90 95 60 40 32 37 34 34 48 56 58 63 48 33 31 33 29 29 22 19 20 26 31 34 30 33 36 43 48 54 54 54 52 50 48 54 60 56 66 68 71 71 77
67 77 90 95 83 62 58 36 31 42 60 49 48 42 33 32 33 31 25 20 17 15 17 25 33 28 28 28 31 34 38 49 55 57 58 56 54 54 55 56 57 60 69 78
80 94 80 78 87 87 74 54 38 39 41 48 41 44 37 34 32 31 22 23 23 18 17 20 23 20 22 26 26 26 28 37 44 52 58 57 60 62 64 67 70 71 75 85
88 98 92 80 61 69 68 51 42 43 50 48 44 43 33 30 26 29 26 22 23 22 18 17 17 18 20 20 21 27 29 35 45 53 59 67 69 68 72 78 84 90 99 100
96 100 97 78 69 74 76 49 44 48 48 46 52 42 32 32 34 30 24 21 20 19 18 18 16 16 19 21 24 28 30 37 49 58 66 74 80 82 84 89 96 99 96 95
88 100 99 95 91 97 63 41 37 42 41 47 44 37 36 34 27 23 20 18 16 19 18 17 16 20 23 25 28 31 34 41 51 61 68 76 83 95 100 99 97 97 94 95
73 89 99 96 90 92 64 53 53 56 44 37 41 42 38 29 26 26 20 20 19 17 14 16 16 18 24 31 31 38 45 53 60 73 94 100 97 98 99 98 98 100 100 100
77 79 88 99 97 93 65 54 56 44 66 45 42 45 40 32 43 35 15 16 16 18 16 18 19 25 29 29 40 53 65 86 99 100 100 98 100 100 100 100 100 100 100 100
94 93 96 96 96 90 68 81 73 68 65 53 44 38 35 35 36 20 20 22 26 21 19 23 30 32 34 45 59 75 92 100 100 100 99 99 99 99 99 100 100 100 100 100
84 95 98 99 99 94 72 78 90 74 63 59 54 52 44 34 28 28 26 40 26 39 49 47 46 48 66 76 81 90 100 100 99 100 99 98 99 100 100 100 100 100 100 100
72 72 77 87 86 65 55 66 48 59 78 60 53 50 55 41 38 41 38 51 65 43 50 64 64 87 100 100 99 99 100 99 96 94 92 96 99 99 99 99 100 99 99 99
55 64 79 84 54 64 47 38 37 54 55 49 42 43 52 57 56 44 57 84 86 90 100 99 92 94 100 100 95 87 92 94 94 89 90 92 97 100 100 100 100 100 100 100
60 58 61 69 62 55 51 50 44 44 46 47 39 54 58 60 72 85 92 98 99 99 99 100 97 98 100 99 94 91 89 90 85 91 98 97 100 100 100 100 100 100 99 98
59 54 73 62 44 58 50 43 50 47 48 46 55 61 60 53 64 81 90 89 96 97 100 92 97 99 100 98 98 98 100 100 93 94 100 100 100 100 100 100 97 97 97 97